Weather History for Mesquite, TX

Change the Weather History Date:

Wednesday, October 10, 2012

  Actual Average (KDFW) Record (KDFW)
Temperature  
Mean Temperature 64 °F 69 °F  
Max Temperature 69 °F 80 °F 95 °F (1975)
Min Temperature 60 °F 59 °F 39 °F (2000)
Degree Days  
Heating Degree Days 0 1  
Month to date heating degree days 10  
Since 1 July heating degree days 16  
Cooling Degree Days 0 6  
Month to date cooling degree days 68  
Year to date cooling degree days 2645  
Growing Degree Days 14 (Base 50)    
Moisture  
Dew Point 61 °F    
Average Humidity 86    
Maximum Humidity 94    
Minimum Humidity 73    
Precipitation  
Precipitation 0.00 in 0.12 in 1.64 in (1919)
Month to date precipitation 1.09  
Year to date precipitation 27.75  
Snow  
Snow 0.00 in 0.00 in 0.00 in ()
Month to date snowfall 0.0  
Since 1 July snowfall 0.0  
Since 1 September snowfall 0.0  
Snow Depth -    
Sea Level Pressure  
Sea Level Pressure 30.09 in    
Wind  
Wind Speed 3 mph (NE)    
Max Wind Speed 9 mph    
Max Gust Speed -    
Visibility 6 miles    
Events      
T = Trace of Precipitation, MM = Missing Value Source: NWS Daily Summary

Daily Weather History Graph

Daily Weather History Graph

Search for Another Location

Airport:

Trip Planner

Search our weather history database for the weather conditions in past years. The results will help you decide how hot, cold, wet, or windy it might be!

Date:

Astronomy

Oct. 10, 2012 Rise Set
Actual Time 7:26 AM CDT 6:58 PM CDT
Civil Twilight 7:02 AM CDT 7:23 PM CDT
Nautical Twilight 6:33 AM CDT 7:51 PM CDT
Astronomical Twilight 6:05 AM CDT 8:20 PM CDT
Moon 2:20 AM CDT (10/10) 3:47 PM CDT (10/10)
Length of Visible Light 12h 21m
Length of Day
11h 31m
Waning Crescent, 27% of the Moon is Illuminated
Oct 10
Waning Crescent
Oct 15
New
Oct 21
First Quarter
Oct 29
Full
Nov 6
Last Quarter

Hourly Weather History & Observations

Time (CDT) Temp. Dew Point Humidity Pressure Visibility Wind Dir Wind Speed Gust Speed Precip Events Conditions
12:15 AM 62.6 °F 59.0 °F 88% 29.98 in 10.0 mi SE 4.6 mph - N/A   Clear
12:55 AM 62.6 °F 60.8 °F 94% 29.98 in 10.0 mi Calm Calm - N/A   Clear
1:35 AM 62.6 °F 59.0 °F 88% 29.99 in 10.0 mi SE 3.5 mph - N/A   Clear
1:55 AM 62.6 °F 60.8 °F 94% 29.99 in 10.0 mi ESE 4.6 mph - N/A   Clear
2:15 AM 62.6 °F 60.8 °F 94% 30.00 in 10.0 mi ENE 3.5 mph - N/A   Clear
2:35 AM 62.6 °F 60.8 °F 94% 30.00 in 7.0 mi ENE 3.5 mph - N/A   Clear
2:55 AM 60.8 °F 59.0 °F 94% 30.00 in 7.0 mi Calm Calm - N/A   Clear
3:15 AM 60.8 °F 59.0 °F 94% 30.00 in 7.0 mi Calm Calm - N/A   Clear
3:35 AM 60.8 °F 59.0 °F 94% 30.00 in 7.0 mi ESE 3.5 mph - N/A   Clear
3:55 AM 62.6 °F 60.8 °F 94% 30.01 in 7.0 mi SE 3.5 mph - N/A   Clear
4:15 AM 60.8 °F 59.0 °F 94% 30.01 in 3.0 mi Calm Calm - N/A   Clear
4:35 AM 62.6 °F 60.8 °F 94% 30.02 in 4.0 mi ENE 3.5 mph - N/A   Scattered Clouds
4:55 AM 62.6 °F 60.8 °F 94% 30.03 in 4.0 mi Calm Calm - N/A   Mostly Cloudy
5:15 AM 62.6 °F 60.8 °F 94% 30.03 in 2.5 mi Calm Calm - N/A   Overcast
5:35 AM 62.6 °F 60.8 °F 94% 30.04 in 3.0 mi Calm Calm - N/A   Overcast
5:55 AM 62.6 °F 60.8 °F 94% 30.05 in 4.0 mi Calm Calm - N/A   Overcast
6:15 AM 62.6 °F 60.8 °F 94% 30.05 in 5.0 mi Calm Calm - N/A   Overcast
6:35 AM 62.6 °F 60.8 °F 94% 30.06 in 7.0 mi Calm Calm - N/A   Overcast
6:55 AM 64.4 °F 62.6 °F 94% 30.07 in 7.0 mi Calm Calm - N/A   Overcast
7:35 AM 64.4 °F 62.6 °F 94% 30.09 in 5.0 mi Calm Calm - N/A   Overcast
7:55 AM 64.4 °F 62.6 °F 94% 30.09 in 5.0 mi Calm Calm - N/A   Overcast
8:15 AM 64.4 °F 62.6 °F 94% 30.10 in 3.0 mi Calm Calm - N/A   Overcast
8:35 AM 66.2 °F 64.4 °F 94% 30.11 in 5.0 mi Calm Calm - N/A   Overcast
8:55 AM 68.0 °F 64.4 °F 88% 30.12 in 5.0 mi Calm Calm - N/A   Overcast
9:15 AM 68.0 °F 64.4 °F 88% 30.12 in 5.0 mi Calm Calm - N/A   Overcast
9:35 AM 68.0 °F 64.4 °F 88% 30.13 in 5.0 mi Calm Calm - N/A   Overcast
9:55 AM 68.0 °F 64.4 °F 88% 30.14 in 5.0 mi Calm Calm - N/A   Overcast
10:15 AM 69.8 °F 64.4 °F 83% 30.14 in 5.0 mi Calm Calm - N/A   Overcast
10:35 AM 69.8 °F 64.4 °F 83% 30.15 in 5.0 mi Calm Calm - N/A   Overcast
10:55 AM 69.8 °F 64.4 °F 83% 30.16 in 5.0 mi NNW 8.1 mph - N/A   Overcast
11:15 AM 66.2 °F 62.6 °F 88% 30.15 in 2.5 mi North 8.1 mph - N/A   Overcast
11:35 AM 64.4 °F 60.8 °F 88% 30.16 in 5.0 mi NNE 8.1 mph - N/A   Overcast
11:55 AM 64.4 °F 60.8 °F 88% 30.16 in 4.0 mi NNE 6.9 mph - N/A   Overcast
12:15 PM 64.4 °F 60.8 °F 88% 30.16 in 5.0 mi NNE 6.9 mph - N/A   Overcast
12:35 PM 64.4 °F 60.8 °F 88% 30.15 in 7.0 mi NNE 5.8 mph - N/A   Overcast
12:55 PM 64.4 °F 60.8 °F 88% 30.15 in 7.0 mi NNE 6.9 mph - N/A   Overcast
1:15 PM 64.4 °F 62.6 °F 94% 30.15 in 10.0 mi NNE 6.9 mph - N/A   Overcast
1:35 PM 64.4 °F 62.6 °F 94% 30.14 in 5.0 mi North 6.9 mph - N/A   Overcast
1:55 PM 66.2 °F 62.6 °F 88% 30.13 in 5.0 mi North 6.9 mph - N/A   Overcast
2:15 PM 64.4 °F 62.6 °F 94% 30.12 in 4.0 mi North 6.9 mph - N/A   Overcast
2:35 PM 66.2 °F 62.6 °F 88% 30.12 in 4.0 mi NNE 8.1 mph - N/A   Overcast
2:55 PM 66.2 °F 62.6 °F 88% 30.11 in 4.0 mi NNE 8.1 mph - N/A   Overcast
3:15 PM 68.0 °F 62.6 °F 83% 30.10 in 4.0 mi NE 6.9 mph - N/A   Overcast
3:35 PM 68.0 °F 62.6 °F 83% 30.09 in 4.0 mi NE 8.1 mph - N/A   Overcast
3:55 PM 69.8 °F 62.6 °F 78% 30.09 in 5.0 mi NE 6.9 mph - N/A   Overcast
4:15 PM 69.8 °F 62.6 °F 78% 30.09 in 5.0 mi NNE 6.9 mph - N/A   Overcast
4:35 PM 69.8 °F 62.6 °F 78% 30.09 in 5.0 mi NNE 6.9 mph - N/A   Overcast
4:55 PM 69.8 °F 62.6 °F 78% 30.08 in 5.0 mi NE 5.8 mph - N/A   Overcast
5:15 PM 69.8 °F 60.8 °F 73% 30.08 in 5.0 mi ENE 6.9 mph - N/A   Overcast
5:35 PM 69.8 °F 60.8 °F 73% 30.08 in 7.0 mi NE 5.8 mph - N/A   Overcast
5:55 PM 69.8 °F 60.8 °F 73% 30.08 in 5.0 mi ENE 4.6 mph - N/A   Overcast
6:15 PM 68.0 °F 60.8 °F 78% 30.09 in 5.0 mi NNE 3.5 mph - N/A   Overcast
6:35 PM 68.0 °F 60.8 °F 78% 30.09 in 7.0 mi NE 4.6 mph - N/A   Overcast
6:55 PM 68.0 °F 60.8 °F 78% 30.09 in 7.0 mi ENE 3.5 mph - N/A   Overcast
7:15 PM 68.0 °F 59.0 °F 73% 30.10 in 7.0 mi ENE 9.2 mph - N/A   Overcast
7:35 PM 68.0 °F 59.0 °F 73% 30.10 in 10.0 mi East 4.6 mph - N/A   Overcast
7:55 PM 66.2 °F 59.0 °F 78% 30.11 in 10.0 mi Calm Calm - N/A   Overcast
8:15 PM 66.2 °F 59.0 °F 78% 30.11 in 10.0 mi ENE 3.5 mph - N/A   Overcast
8:35 PM 66.2 °F 59.0 °F 78% 30.12 in 10.0 mi ENE 3.5 mph - N/A   Overcast
8:55 PM 66.2 °F 59.0 °F 78% 30.12 in 10.0 mi Calm Calm - N/A   Overcast
9:15 PM 66.2 °F 59.0 °F 78% 30.12 in 10.0 mi ENE 4.6 mph - N/A   Overcast
9:35 PM 66.2 °F 59.0 °F 78% 30.12 in 10.0 mi East 8.1 mph - N/A   Scattered Clouds
9:55 PM 64.4 °F 59.0 °F 83% 30.12 in 10.0 mi East 3.5 mph - N/A   Scattered Clouds
10:15 PM 64.4 °F 59.0 °F 83% 30.12 in 10.0 mi ENE 3.5 mph - N/A   Scattered Clouds
10:35 PM 64.4 °F 59.0 °F 83% 30.12 in 10.0 mi ENE 3.5 mph - N/A   Scattered Clouds
10:55 PM 64.4 °F 59.0 °F 83% 30.12 in 10.0 mi Calm Calm - N/A   Scattered Clouds
11:15 PM 64.4 °F 59.0 °F 83% 30.12 in 10.0 mi Calm Calm - N/A   Scattered Clouds
11:35 PM 64.4 °F 59.0 °F 83% 30.12 in 10.0 mi NE 3.5 mph - N/A   Scattered Clouds
11:55 PM 62.6 °F 59.0 °F 88% 30.11 in 10.0 mi Calm Calm - N/A   Mostly Cloudy